Location: Frydek-Mistek
(49.6830°N, 18.3330°E)
Time: 20:23:05
(UTC+02:00)

Courier 1B Rocket - Visible Passes

Search period start: 21 October 2014 00:00
Search period end: 30 October 2014 23:00
Orbit: 921 x 1202 km, 28.3° (Epoch: 20 October)

Date Brightness Start Highest point End Pass type
(mag) Time Alt. Az. Time Alt. Az. Time Alt. Az.
21 Oct 7.6 04:57:06 10° SSE 04:57:30 10° SSE 04:57:54 10° SSE visible
22 Oct 7.4 05:45:40 10° SSW 05:48:57 13° S 05:52:11 10° SSE visible
23 Oct 7.4 04:45:38 10° S 04:48:17 12° S 04:51:03 10° SSE visible
23 Oct 7.4 06:37:07 10° SSW 06:40:25 13° S 06:43:41 10° SSE visible
24 Oct 7.6 03:48:30 10° SSE 03:48:30 10° SSE 03:48:52 10° SSE visible
24 Oct 7.3 05:36:10 10° SSW 05:39:46 14° S 05:43:19 10° SSE visible
25 Oct 7.3 04:37:44 13° S 04:39:05 14° S 04:42:32 10° SSE visible
25 Oct 7.4 06:28:24 10° SSW 06:31:13 12° S 06:34:01 10° S visible
26 Oct 7.6 02:40:35 11° SSE 02:40:35 11° SSE 02:41:17 10° SSE visible
26 Oct 7.3 04:27:05 10° SSW 04:30:34 14° S 04:34:02 10° SSE visible
27 Oct 7.2 03:29:48 14° S 03:29:53 14° S 03:33:32 10° SSE visible
27 Oct 7.4 05:20:37 10° SSW 05:22:00 11° SSW 05:23:23 10° S visible
28 Oct 7.3 04:19:01 11° SSW 04:21:21 12° S 04:24:15 10° SSE visible
29 Oct 7.3 03:21:52 13° S 03:21:52 13° S 03:24:08 10° SSE visible
30 Oct 7.3 04:11:07 10° SSW 04:12:08 10° SSW 04:13:24 10° S visible
